Location: Unspecified
(0.0000°N, 0.0000°E)
Time: 17:12:23
(UTC+00:00)

X-37B - Visible Passes

Search period start: 20 November 2017 00:00
Search period end: 30 November 2017 00:00
Orbit: 259 x 286 km, 43.2° (Epoch: 06 October)

Date Brightness Start Highest point End Pass type
(mag) Time Alt. Az. Time Alt. Az. Time Alt. Az.
20 Nov 3.6 18:09:54 10° WNW 18:11:41 24° SW 18:13:28 10° SSE visible
21 Nov 2.8 05:16:49 10° SSW 05:18:59 39° SE 05:21:09 10° ENE visible
22 Nov 1.1 05:04:44 10° SW 05:06:59 83° NW 05:09:16 10° NE visible
23 Nov 1.9 04:54:31 29° WNW 04:54:59 33° NW 04:57:06 10° NNE visible
